Location: Valdosta
(30.8330°N, 83.2790°W)
Time: 20:07:40
(UTC-04:00)

Amateur Radio Satellites - All Passes

Search period start: 28 May 2017 19:37
Search period end: 29 May 2017 19:37
Location: Valdosta, 30.8330°N, 83.2790°W

Satellite Date Start Highest point End Downlink Frequencies (MHz)
Time Altitude Azimuth
CUBEBUG 2 28 May 19:45:22 19:47:20 13° 68° (ENE) 19:49:20 437.445
STARS 28 May 19:47:42 19:50:49 19° 290° (WNW) 19:53:57 437.465
XW-2D 28 May 20:04:43 20:06:35 13° 266° (W) 20:08:28 145.860 - 145.880
XW-2A 28 May 20:07:29 20:10:42 48° 76° (ENE) 20:13:58 145.665 - 145.685
ISS 28 May 20:09:01 20:12:13 52° 316° (NW) 20:15:27 437.550
XW-2B 28 May 20:13:45 20:14:40 11° 267° (W) 20:15:33 145.730 - 145.750
CUTE-I 28 May 20:14:39 20:18:39 22° 264° (W) 20:22:40 437.470
NUDT-PHONESAT 28 May 20:15:39 20:17:17 12° 266° (W) 20:18:56 437.300
CUTE 1.7 + AOD 2 28 May 20:16:54 20:21:11 81° 76° (ENE) 20:25:28 437.475
STRAND 1 28 May 20:17:46 20:22:19 31° 98° (E) 20:26:51 437.568
AAUSAT CUBESAT 2 28 May 20:20:01 20:23:14 22° 72° (ENE) 20:26:28 437.432
PCSat 28 May 20:36:28 20:40:23 20° 305° (NW) 20:44:19 145.827
AO-73 28 May 20:42:21 20:45:15 18° 70° (ENE) 20:48:12 145.935
HO-68 28 May 20:52:04 20:59:00 52° 259° (W) 21:05:59 435.675
Tancredo 1 28 May 20:53:34 20:54:28 11° 327° (NNW) 20:55:22 437.200
ZACube-1 28 May 20:56:52 21:00:34 31° 73° (ENE) 21:04:20 437.345
SEEDS 28 May 21:01:54 21:05:57 43° 261° (W) 21:10:00 437.485
CUBEBUG 2 28 May 21:19:45 21:23:34 36° 262° (W) 21:27:27 437.445
UWE-3 28 May 21:24:40 21:28:46 58° 260° (W) 21:32:57 435.000/436.395/437.385
Oscar 11 28 May 21:47:12 21:51:32 85° 258° (WSW) 21:55:54 .
DELFI C3 28 May 21:52:25 21:55:37 23° 72° (ENE) 21:58:48 145.870
AAUSAT CUBESAT 2 28 May 21:55:19 21:58:32 22° 264° (W) 22:01:47 437.432
STRAND 1 28 May 21:57:14 22:01:16 24° 291° (WNW) 22:05:17 437.568
SO-50 28 May 22:15:43 22:20:19 76° 116° (ESE) 22:24:52 436.795
AO-73 28 May 22:17:41 22:21:14 27° 263° (W) 22:24:52 145.935
ZACube-1 28 May 22:34:20 22:36:52 15° 266° (W) 22:39:25 437.345
FO-29 28 May 22:41:56 22:48:02 32° 98° (E) 22:54:35 435.910
M-CUBED/EXP-1 PRIME 28 May 22:45:12 22:48:02 28° 291° (WNW) 22:50:53 437.505
EO-88 28 May 22:53:24 22:57:02 71° 260° (W) 23:00:41 145.990 - 145.960
PRISM 28 May 22:55:43 22:59:27 36° 99° (E) 23:03:11 437.425
TIGRISAT 28 May 23:00:27 23:04:39 33° 98° (E) 23:08:50 435.000
DELFI C3 28 May 23:27:30 23:30:16 18° 264° (W) 23:33:03 145.870
LO-87 28 May 23:28:58 23:32:05 30° 74° (ENE) 23:35:13 145.935 - 145.965
UNISAT 6 28 May 23:32:32 23:37:12 87° 103° (ESE) 23:41:54 437.425
SO-50 29 May 00:00:47 00:01:14 10° 311° (NW) 00:01:41 436.795
ESTCUBE 1 29 May 00:00:53 00:05:14 47° 74° (ENE) 00:09:36 437.505/2401.250
NANOSAT C BR1 29 May 00:16:54 00:18:14 11° 93° (E) 00:19:33 145.865
SPROUT 29 May 00:22:24 00:25:14 18° 70° (ENE) 00:28:06 437.525
POLYITAN 1 29 May 00:22:41 00:25:18 16° 95° (E) 00:27:53 437.675
DUCHIFAT 1 29 May 00:25:35 00:27:35 13° 94° (E) 00:29:35 145.980
FO-29 29 May 00:26:41 00:32:54 40° 288° (WNW) 00:39:43 435.910
QB50P2 29 May 00:30:51 00:34:12 22° 96° (E) 00:37:31 145.880/145.840
PRISM 29 May 00:32:33 00:34:22 13° 292° (WNW) 00:36:10 437.425
TIGRISAT 29 May 00:37:47 00:41:02 19° 290° (WNW) 00:44:17 435.000
RS-15 29 May 00:40:29 00:48:40 22° 100° (E) 00:56:59 29.354- 29.394
VELOX 1 29 May 00:46:00 00:50:02 35° 73° (ENE) 00:54:04 145.980
AIST 2D 29 May 00:47:28 00:51:02 84° 101° (E) 00:54:35 435.315
JUGNU 29 May 00:58:15 01:00:03 11° 161° (SSE) 01:01:50 437.505
YUBILEINY 29 May 01:02:16 01:09:59 37° 87° (E) 01:17:43 435.215
UKube-1 29 May 01:03:13 01:04:34 11° 67° (ENE) 01:05:55 .
LO-87 29 May 01:04:59 01:05:33 10° 266° (W) 01:06:08 145.935 - 145.965
EO-79 29 May 01:06:20 01:10:32 57° 101° (E) 01:14:44 145.935-145.965
DX 1 29 May 01:13:49 01:17:19 24° 71° (ENE) 01:20:48 434.975-435.025
ESTCUBE 1 29 May 01:40:36 01:42:12 12° 267° (W) 01:43:47 437.505/2401.250
NANOSAT C BR1 29 May 01:50:02 01:54:04 43° 286° (WNW) 01:58:05 145.865
Oscar 19 29 May 01:55:59 01:59:05 16° 94° (E) 02:02:10 437.125/150
50 SAT 29 May 01:56:28 01:59:49 48° 260° (W) 02:03:10 437.505
POLYITAN 1 29 May 01:57:16 02:01:04 32° 287° (WNW) 02:04:52 437.675
SPROUT 29 May 01:57:16 02:00:54 28° 263° (W) 02:04:32 437.525
DUCHIFAT 1 29 May 01:59:25 02:03:19 37° 286° (WNW) 02:07:13 145.980
QB50P2 29 May 02:06:28 02:09:50 23° 289° (WNW) 02:13:11 145.880/145.840
BUGSAT 1 29 May 02:06:47 02:10:57 70° 102° (ESE) 02:15:07 437.445
VELOX 1 29 May 02:24:01 02:26:31 15° 265° (W) 02:29:01 145.980
UKube-1 29 May 02:35:58 02:40:07 47° 260° (W) 02:44:17 .
ITUPSAT 1 29 May 02:39:54 02:41:39 12° 66° (ENE) 02:43:25 437.325
ISS 29 May 02:42:15 02:43:57 13° 34° (NE) 02:45:37 437.550
JUGNU 29 May 02:43:58 02:48:26 22° 169° (S) 02:52:56 437.505
RS-15 29 May 02:47:39 02:59:39 82° 297° (WNW) 03:12:06 29.354- 29.394
DX 1 29 May 02:50:02 02:53:22 21° 263° (W) 02:56:43 434.975-435.025
O/OREOS (USA 219) 29 May 02:55:21 02:56:37 11° 98° (E) 02:57:54 437.305
YUBILEINY 29 May 02:58:38 03:06:33 38° 283° (WNW) 03:14:34 435.215
BEESAT 29 May 03:09:11 03:13:08 27° 71° (ENE) 03:17:06 436.000
Tancredo 1 29 May 03:20:05 03:23:05 52° 44° (NE) 03:26:04 437.200
SRMSAT 29 May 03:31:23 03:32:50 11° 161° (SSE) 03:34:17 437.500
Gurwin Techsat 1B 29 May 03:32:09 03:37:29 83° 285° (WNW) 03:42:48 435.225
Oscar 19 29 May 03:33:40 03:38:32 44° 287° (WNW) 03:43:22 437.125/150
PCSat 29 May 03:47:05 03:49:23 13° 51° (NE) 03:51:41 145.827
AO-85 29 May 03:54:03 03:57:54 32° 113° (ESE) 04:01:34 145.980
MOZHAYETS 4 29 May 04:04:26 04:08:56 58° 75° (ENE) 04:13:29
AO-7 29 May 04:08:05 04:15:10 30° 99° (E) 04:22:12 .
ITUPSAT 1 29 May 04:14:17 04:18:56 55° 259° (W) 04:23:38 437.325
ISS 29 May 04:17:28 04:20:39 49° 228° (SW) 04:23:48 437.550
O/OREOS (USA 219) 29 May 04:31:03 04:35:30 49° 291° (WNW) 04:39:58 437.305
JUGNU 29 May 04:31:56 04:36:56 28° 179° (S) 04:41:58 437.505
KKS-1 29 May 04:39:39 04:42:36 18° 69° (ENE) 04:45:33 437.445
ITAMSAT 1 29 May 04:40:48 04:45:56 57° 101° (E) 04:51:04 435.822/435.867
BEESAT 29 May 04:47:00 04:50:46 23° 263° (W) 04:54:35 436.000
BEESAT 2 29 May 04:49:41 04:51:16 12° 108° (ESE) 04:52:52 435.950
CUBESAT XI-V 29 May 04:57:55 05:02:12 36° 73° (ENE) 05:06:31 437.345
BEESAT 3 29 May 05:01:03 05:04:54 60° 115° (ESE) 05:08:50 437.485
STARS 29 May 05:03:52 05:05:52 13° 68° (ENE) 05:07:51 437.465
RS-15 29 May 05:05:19 05:14:16 23° 320° (NW) 05:23:22 29.354- 29.394
SRMSAT 29 May 05:16:55 05:21:25 22° 169° (SSE) 05:25:55 437.500
PCSat 29 May 05:27:54 05:33:19 76° 247° (WSW) 05:38:42 145.827
AO-85 29 May 05:35:34 05:38:17 17° 305° (NW) 05:40:56 145.980
AO-7 29 May 06:00:04 06:08:00 50° 293° (WNW) 06:15:56 .
KKS-1 29 May 06:14:58 06:18:52 31° 262° (W) 06:22:48 437.445
JUGNU 29 May 06:20:48 06:25:27 24° 189° (S) 06:30:07 437.505
ITAMSAT 1 29 May 06:22:17 06:24:51 14° 295° (WNW) 06:27:26 435.822/435.867
BEESAT 2 29 May 06:24:55 06:28:36 37° 301° (WNW) 06:32:21 435.950
CUBESAT XI-V 29 May 06:36:37 06:39:37 17° 266° (W) 06:42:36 437.345
STARS 29 May 06:37:40 06:41:47 41° 260° (W) 06:45:54 437.465
SO-50 29 May 06:53:23 06:56:11 16° 52° (NE) 06:58:59 436.795
CUTE-I 29 May 06:56:46 07:00:52 22° 96° (E) 07:04:58 437.470
SRMSAT 29 May 07:05:01 07:10:05 29° 179° (S) 07:15:09 437.500
LilacSat-2 29 May 07:09:46 07:13:20 34° 98° (E) 07:16:50 437.200
DOVE 4 29 May 07:20:41 07:24:55 84° 283° (WNW) 07:29:20 437.250
NO-84 29 May 07:20:58 07:24:57 35° 124° (SE) 07:28:58 435.350 FM
STRAND 1 29 May 07:28:37 07:32:46 26° 70° (ENE) 07:36:56 437.568
XW-2D 29 May 07:40:20 07:44:12 86° 282° (WNW) 07:48:00 145.860 - 145.880
XW-2B 29 May 07:48:24 07:52:13 69° 284° (WNW) 07:56:00 145.730 - 145.750
NUDT-PHONESAT 29 May 07:48:59 07:52:45 90° 90° (E) 07:56:30 437.300
XW-2F 29 May 07:58:59 08:02:43 49° 284° (WNW) 08:06:23 145.980 - 146.000
KAITUO 1B 29 May 08:01:39 08:05:22 57° 284° (WNW) 08:09:03 145.475/437.950
XW-2C 29 May 08:02:22 08:06:00 42° 285° (WNW) 08:09:37 145.795 - 145.815
CUTE 1.7 + AOD 2 29 May 08:08:00 08:11:12 21° 96° (E) 08:14:23 437.475
JUGNU 29 May 08:11:15 08:13:53 13° 198° (SSW) 08:16:32 437.505
HO-68 29 May 08:25:44 08:32:30 43° 100° (E) 08:39:14 435.675
SO-50 29 May 08:32:31 08:36:48 43° 247° (WSW) 08:41:05 436.795
CUTE-I 29 May 08:36:06 08:40:54 35° 289° (WNW) 08:45:42 437.470
LilacSat-2 29 May 08:45:47 08:47:13 12° 291° (WNW) 08:48:38 437.200
SEEDS 29 May 08:50:57 08:54:57 44° 99° (E) 08:58:56 437.485
SRMSAT 29 May 08:54:01 08:58:46 25° 189° (S) 09:03:30 437.500
NO-84 29 May 08:58:58 09:02:36 25° 318° (NW) 09:06:12 435.350 FM
XW-2A 29 May 09:06:52 09:10:18 65° 283° (WNW) 09:13:42 145.665 - 145.685
STRAND 1 29 May 09:07:29 09:11:47 28° 263° (W) 09:16:07 437.568
CUBEBUG 2 29 May 09:14:53 09:19:32 67° 101° (E) 09:24:15 437.445
UWE-3 29 May 09:19:13 09:23:38 43° 99° (E) 09:28:04 435.000/436.395/437.385
M-CUBED/EXP-1 PRIME 29 May 09:24:41 09:28:58 73° 254° (WSW) 09:32:58 437.505
Oscar 11 29 May 09:40:19 09:43:58 26° 97° (E) 09:47:35 .
PRISM 29 May 09:41:14 09:43:11 13° 68° (ENE) 09:45:07 437.425
AAUSAT CUBESAT 2 29 May 09:41:37 09:45:45 87° 102° (ESE) 09:49:51 437.432
CUTE 1.7 + AOD 2 29 May 09:43:32 09:46:55 23° 288° (WNW) 09:50:16 437.475
RS-15 29 May 09:46:33 09:54:36 19° 35° (NE) 10:02:22 29.354- 29.394
TIGRISAT 29 May 09:55:28 09:57:40 14° 68° (ENE) 09:59:54 435.000
AO-73 29 May 10:09:53 10:14:29 84° 103° (ESE) 10:19:02 145.935
HO-68 29 May 10:13:54 10:19:54 30° 294° (WNW) 10:25:54 435.675
ZACube-1 29 May 10:25:47 10:30:16 56° 284° (WNW) 10:34:45 437.345
UNISAT 6 29 May 10:26:10 10:30:04 36° 73° (ENE) 10:34:03 437.425
EO-88 29 May 10:28:51 10:30:53 14° 95° (E) 10:32:53 145.990 - 145.960
SEEDS 29 May 10:28:55 10:30:11 11° 292° (WNW) 10:31:27 437.485
FO-29 29 May 10:34:08 10:39:06 49° 73° (ENE) 10:44:10 435.910
SRMSAT 29 May 10:44:26 10:47:22 14° 198° (SSW) 10:50:16 437.500
UWE-3 29 May 10:57:07 10:59:40 15° 291° (WNW) 11:02:13 435.000/436.395/437.385
DELFI C3 29 May 11:08:26 11:12:21 83° 103° (ESE) 11:16:15 145.870
PRISM 29 May 11:14:15 11:18:05 36° 261° (W) 11:21:54 437.425
Oscar 11 29 May 11:16:44 11:19:52 20° 290° (WNW) 11:23:01 .
AIST 2D 29 May 11:18:18 11:19:47 12° 70° (ENE) 11:21:18 435.315
YUBILEINY 29 May 11:22:09 11:25:23 12° 67° (ENE) 11:28:36 435.215
TIGRISAT 29 May 11:30:03 11:33:58 36° 262° (W) 11:37:59 435.000
EO-79 29 May 11:54:04 11:57:09 20° 71° (ENE) 12:00:16 145.935-145.965
RS-15 29 May 11:57:35 12:09:42 71° 61° (ENE) 12:21:07 29.354- 29.394
ESTCUBE 1 29 May 12:00:05 12:02:44 15° 94° (E) 12:05:22 437.505/2401.250
EO-88 29 May 12:01:29 12:04:30 24° 287° (WNW) 12:07:30 145.990 - 145.960
UNISAT 6 29 May 12:04:47 12:06:53 13° 266° (W) 12:08:59 437.425
FO-29 29 May 12:22:11 12:24:31 13° 267° (W) 12:26:52 435.910
LO-87 29 May 12:33:51 12:37:25 88° 96° (E) 12:41:00 145.935 - 145.965
NANOSAT C BR1 29 May 12:36:06 12:40:12 64° 76° (ENE) 12:44:21 145.865
POLYITAN 1 29 May 12:43:33 12:47:43 90° 162° (SSE) 12:51:57 437.675
DUCHIFAT 1 29 May 12:45:03 12:49:11 74° 76° (ENE) 12:53:21 145.980
AIST 2D 29 May 12:49:43 12:52:41 26° 263° (W) 12:55:42 435.315
BUGSAT 1 29 May 12:51:50 12:54:53 21° 71° (ENE) 12:57:58 437.445
QB50P2 29 May 12:52:28 12:56:36 62° 259° (WSW) 13:00:46 145.880/145.840
Oscar 19 29 May 13:08:12 13:10:56 14° 66° (ENE) 13:13:40 437.125/150
YUBILEINY 29 May 13:14:30 13:23:23 83° 84° (E) 13:32:13 435.215
50 SAT 29 May 13:25:59 13:27:41 13° 95° (E) 13:29:22 437.505
EO-79 29 May 13:29:23 13:32:44 23° 263° (W) 13:36:07 145.935-145.965
ESTCUBE 1 29 May 13:35:30 13:39:35 35° 287° (WNW) 13:43:39 437.505/2401.250
SPROUT 29 May 13:47:26 13:51:43 72° 101° (E) 13:55:59 437.525
AO-85 29 May 14:09:27 14:13:36 82° 64° (ENE) 14:18:00 145.980
RS-15 29 May 14:11:58 14:20:55 26° 258° (WSW) 14:29:36 29.354- 29.394
VELOX 1 29 May 14:17:14 14:21:29 50° 285° (WNW) 14:25:44 145.980
BUGSAT 1 29 May 14:27:10 14:30:07 20° 264° (W) 14:33:04 437.445
UKube-1 29 May 14:28:14 14:32:17 41° 100° (E) 14:36:20 .
DX 1 29 May 14:42:17 14:46:37 83° 284° (WNW) 14:50:56 434.975-435.025
Oscar 19 29 May 14:44:40 14:49:43 54° 259° (W) 14:54:49 437.125/150
O/OREOS (USA 219) 29 May 14:46:30 14:50:57 64° 254° (WSW) 14:55:21 437.305
Gurwin Techsat 1B 29 May 14:47:37 14:52:55 89° 263° (W) 14:58:15 435.225
BEESAT 2 29 May 14:47:52 14:51:02 22° 56° (NE) 14:54:10 435.950
50 SAT 29 May 14:57:50 15:00:28 21° 287° (WNW) 15:03:05 437.505
BEESAT 3 29 May 15:00:04 15:04:05 84° 241° (WSW) 15:08:00 437.485
AO-7 29 May 15:01:54 15:08:24 27° 61° (ENE) 15:14:54 .
YUBILEINY 29 May 15:14:28 15:18:59 15° 280° (W) 15:23:31 435.215
NO-84 29 May 15:37:51 15:40:40 20° 40° (NE) 15:43:17 435.350 FM
ITAMSAT 1 29 May 15:53:22 15:58:19 49° 73° (ENE) 16:03:18 435.822/435.867
MOZHAYETS 4 29 May 16:05:38 16:09:09 21° 96° (E) 16:12:38
UKube-1 29 May 16:05:57 16:07:54 13° 292° (WNW) 16:09:50 .
ITUPSAT 1 29 May 16:20:02 16:24:48 58° 101° (E) 16:29:31 437.325
BEESAT 2 29 May 16:25:27 16:28:41 23° 249° (WSW) 16:31:52 435.950
BEESAT 29 May 16:51:22 16:56:05 60° 285° (WNW) 17:00:47 436.000
AO-7 29 May 16:52:29 17:00:34 58° 256° (WSW) 17:08:44 .
CUBESAT XI-V 29 May 17:01:27 17:03:44 14° 94° (E) 17:06:00 437.345
NO-84 29 May 17:15:12 17:18:11 26° 237° (WSW) 17:20:57 435.350 FM
ITAMSAT 1 29 May 17:35:13 17:37:58 14° 266° (W) 17:40:43 435.822/435.867
MOZHAYETS 4 29 May 17:42:17 17:46:13 28° 288° (WNW) 17:50:08
ITUPSAT 1 29 May 18:00:24 18:02:03 12° 294° (WNW) 18:03:42 437.325
KKS-1 29 May 18:10:31 18:14:57 75° 102° (ESE) 18:19:23 437.445
CUTE-I 29 May 18:13:34 18:17:33 22° 68° (ENE) 18:21:31 437.470
Tancredo 1 29 May 18:13:38 18:15:44 17° 127° (SE) 18:17:50 437.200
XW-2D 29 May 18:16:52 18:19:39 20° 72° (ENE) 18:22:27 145.860 - 145.880
DOVE 4 29 May 18:20:35 18:25:03 50° 76° (ENE) 18:29:18 437.250
PCSat 29 May 18:21:22 18:26:03 31° 108° (ESE) 18:30:47 145.827
NUDT-PHONESAT 29 May 18:23:50 18:26:18 17° 71° (ENE) 18:28:47 437.300
XW-2B 29 May 18:24:35 18:27:40 24° 73° (ENE) 18:30:45 145.730 - 145.750
STARS 29 May 18:31:59 18:36:16 51° 100° (E) 18:40:33 437.465
XW-2F 29 May 18:34:22 18:37:44 31° 74° (ENE) 18:41:08 145.980 - 146.000
KAITUO 1B 29 May 18:36:24 18:39:33 26° 73° (ENE) 18:42:44 145.475/437.950
CUBESAT XI-V 29 May 18:36:52 18:41:14 42° 286° (WNW) 18:45:33 437.345
XW-2C 29 May 18:37:56 18:41:26 36° 75° (ENE) 18:44:59 145.795 - 145.815
HO-68 29 May 18:50:31 18:55:05 18° 62° (ENE) 18:59:39 435.675
ISS 29 May 19:16:57 19:20:12 65° 133° (SE) 19:23:29 437.550
LilacSat-2 29 May 19:19:44 19:23:26 49° 260° (W) 19:27:12 437.200
